www.pogodaiklimat.ru

Погода и климат >> Архив погоды >> Россия >> Краснодарский край >> Крымск


ПОГОДА в Крымске

  • Прогноз погоды в Крымске
  • Монитор погоды в Крымске

АРХИВ ПОГОДЫ в Крымске

Время (UTC), дата Ветер
(напр.,м/с)
 
Видим.   Явления Облачность Т
(С)
Тd
(С)
f
(%)
Тe
(С)
Тes
(С)
Комфортность P
(гПа)
Po
(гПа)
Тmin
(С)
Tmax
(С)
R
(мм)
R24
(мм)
S
(см)
21 16.05 З 1 10 км 4/0
[Ci fib]
+17.5 +14.7 84 +19 +19 1010.9 1006.9
00 17.05 З 2 10 км 8/0
[Ci fib]
+15.0 +13.5 91 +15 +15 1010.7 1006.7
03 17.05 З 1 10 км 10/0
[Ac trans Ci fib]
+14.5 +13.2 92 +15 +15 1010.6 1006.5 +14.1
06 17.05 В 1 10 км 8/0
[Ci fib]
+23.6 +16.5 64 +27 +36 жарко 1010.5 1006.6
09 17.05 ЮЗ 3 20 км 5/0
[Ci fib]
+27.9 +15.4 47 +31 +44 душно 1010.4 1006.5
12 17.05 ЮЗ 2 20 км 3/0
[Ci fib]
+29.0 +14.4 41 +31 +43 жарко 1009.8 1005.9
15 17.05 СВ 3 20 км 1/0
[Ci fib]
+28.6 +16.2 47 +32 +34 душно 1008.4 1004.6 +29.8
18 17.05 штиль 0 10 км ясно +20.1 +16.0 77 +22 +22 комфорт 1008.1 1004.2
21 17.05 З 1 10 км ясно +17.4 +14.8 85 +18 +18 1007.8 1003.8
00 18.05 З 1 10 км 8/0
[Ci fib]
+15.4 +13.7 90 +16 +16 1007.0 1003.0
03 18.05 С 1 10 км 9/0
[Ac trans Ci fib]
+16.1 +14.2 88 +17 +17 1006.6 1002.6 +14.6
06 18.05 В 1 20 км 10/3 600 м
[Sc Ac trans]
+19.4 +15.1 76 +22 +25 комфорт 1006.3 1002.4
09 18.05 В 2 10 км 9/0
[Ac trans Ci fib]
+25.7 +16.8 58 +29 +41 душно 1006.4 1002.5
12 18.05 СВ 2 10 км 5/0
[Ac trans Ci fib]
+28.7 +17.6 51 +33 +43 очень
душно
1005.5 1001.6
15 18.05 В 3 10 км 3/0
[Ac trans Ci fib]
+28.7 +14.7 42 +31 +33 жарко 1004.0 1000.1 +29.3
18 18.05 С 1 10 км 6/0
[Ac trans Ci fib]
+21.5 +16.0 71 +25 +25 комфорт 1005.1 1001.2
21 18.05 С 1 10 км 8/0
[Ac trans]
+19.0 +15.8 82 +21 +21 комфорт 1004.8 1000.9
00 19.05 ЮЗ 1 10 км 8/0
[Ac trans]
+17.8 +14.9 83 +19 +19 1004.6 1000.6
03 19.05 З 1 20 км 8/3 600 м
[Sc Ac trans]
+17.1 +14.9 87 +18 +18 1005.8 1001.8 +17.1
06 19.05 ЮВ 2 10 км 6/3 600 м
[Sc Ac trans]
+21.7 +16.8 74 +26 +31 душно 1007.1 1003.1 +17.1
09 19.05 Ю 4 10 км {ливн. осадки} 9/5 600 м
[Cb cap Ac trans]
+22.7 +17.3 72 +28 +31 душно 1009.0 1005.1
12 19.05 Ю 3
{11}
10 км {гроза, ливн. осадки} 9/6 600 м
[Cb cap Ac trans]
+23.0 +15.9 64 +27 +30 душно 1010.3 1006.4
15 19.05 Ю 4 10 км 10/5 600 м
[Sc Ac trans Ci fib]
+20.9 +15.3 70 +24 +25 комфорт 1011.1 1007.1 +24.1 0.0
18 19.05 ЮВ 2 10 км 8/3 600 м
[Sc Ac trans]
+17.7 +14.6 82 +18 +18 1011.9 1007.9
21 19.05 ЮЗ 1 10 км 8/0
[Ac trans]
+17.2 +14.9 86 +18 +18 1012.8 1008.8
00 20.05 ЮЗ 1 10 км 10/6 600 м
[Sc Ac trans]
+16.6 +14.7 89 +17 +17 1013.4 1009.4
03 20.05 ЮЗ 1 10 км 10/8 600 м
[Sc Ac trans]
+17.3 +15.2 87 +18 +18 1013.8 1009.8 +16.6
06 20.05 штиль 0 10 км 10/10 600 м
[Sc]
+19.8 +16.3 80 +22 +22 комфорт 1014.7 1010.7
09 20.05 штиль 0 10 км 10/6 600 м
[Cb cap Ac und Ci fib]
+22.8 +15.9 65 +27 +32 душно 1015.5 1011.5
12 20.05 ЮЗ 2 10 км 10/10 600 м
[Cb cap]
+21.7 +16.9 74 +26 +26 душно 1015.9 1011.9
15 20.05 СЗ 2 10 км {ливн. осадки} 6/3 600 м
[Cb cap Ac As]
+21.1 +17.6 80 +25 +26 комфорт 1015.7 1011.7 +23.5 0.8
18 20.05 ЮЗ 1 10 км {ливн. осадки} 3/0
[Ac As]
+17.6 +16.1 91 +19 +19 1016.1 1012.1
21 20.05 ЮЗ 1 2000 м дымка 10/10 300 м
[St]
+15.0 +14.0 94 +15 +15 1016.1 1012.0
00 21.05 ЮЗ 1 1000 м дымка 10/10 200 м
[St]
+14.9 +13.9 94 +15 +15 1015.7 1011.6
03 21.05 штиль 0 1000 м в посл. час туман 10/10 200 м
[St]
+13.8 +12.8 94 +13 +13 1016.1 1012.0 +13.1
06 21.05 З 1 10 км {туман} 4/3 1000 м
[Cu med, cong Ci fib]
+20.9 +16.7 77 +26 +33 душно 1016.9 1012.9
09 21.05 СВ 2 10 км {туман} 8/3 1000 м
[Cu med, cong Ci]
+25.2 +14.9 53 +28 +39 жарко 1016.1 1012.2
12 21.05 В 1 10 км 10/5 600 м
[Cb cap Ci]
+26.5 +14.8 49 +29 +35 жарко 1015.5 1011.6
15 21.05 З 2 10 км 10/6 600 м
[Cb cap Ac und]
+24.2 +17.0 64 +28 +28 душно 1014.8 1010.9 +27.6
18 21.05 З 1 10 км 8/8 600 м
[Cb cap]
+20.4 +16.7 79 +25 +25 комфорт 1014.5 1010.5
21 21.05 штиль 0 10 км 3/0
[Ac trans]
+16.2 +14.6 90 +16 +16 1014.0 1010.0
00 22.05 ЮЗ 1 10 км 8/3 600 м
[Sc diur, vesp Ac trans]
+15.0 +13.8 93 +15 +15 1013.1 1009.1
03 22.05 ЮЗ 2 10 км 10/10 600 м
[Cb cap]
+16.4 +13.5 83 +17 +17 1013.2 1009.2 +14.7
06 22.05 ЮЗ 2 10 км ливневой дождь 10/10 600 м
[Cb cap]
+16.7 +14.8 89 +17 +17 1013.5 1009.5
09 22.05 СЗ 1 20 км {ливн. осадки} 8/5 600 м
[Cb cap Ac trans]
+21.2 +15.3 69 +24 +31 комфорт 1013.5 1009.5
12 22.05 Ю 5-10
{10}
20 км {ливн. осадки} 5/5 600 м
[Cu med, cong]
+22.8 +14.4 59 +26 +30 жарко 1013.4 1009.5
15 22.05 Ю 4
{10}
10 км {ливн. осадки} 4/3 600 м
[Sc diur, vesp Ac trans]
+21.2 +13.6 62 +24 +25 комфорт 1013.0 1009.0 +23.1 3
18 22.05 ЮЗ 2 10 км 3/3 600 м
[Sc diur, vesp]
+18.0 +13.7 76 +19 +19 1013.1 1009.1
21 22.05 Ю 4 10 км 1/0
[Ci fib]
+17.9 +13.4 75 +18 +18 1012.7 1008.7
00 23.05 ЮВ 2 10 км ясно +13.9 +12.1 89 +13 +13 1012.9 1008.8
03 23.05 ЮВ 1 10 км ясно +14.2 +12.9 92 +14 +15 1012.6 1008.5 +12.1
06 23.05 Ю 3 10 км 3/1 600 м
[Cu med, cong Ci fib]
+22.1 +12.8 56 +25 +32 комфорт 1012.1 1008.1
09 23.05 Ю 3 20 км 3/0
[Ci fib]
+24.1 +9.3 39 +25 +39 комфорт 1012.1 1008.2
12 23.05 ЮЗ 4
{10}
20 км 8/0
[Ac lent]
+22.7 +9.7 44 +24 +28 комфорт 1012.1 1008.1
15 23.05 Ю 3 20 км 3/1 600 м
[Sc Ac trans]
+22.3 +9.7 45 +24 +26 комфорт 1011.3 1007.3 +24.2

 

Местоположение метеостанции Крымск (Краснодарский край, Россия): широта 44.92 долгота 38.00 высота над уровнем моря 35 м.

В архиве по умолчанию представлена погода в Крымске за последнюю неделю. Архивные данные за месяц целиком и за предыдущие месяцы, начиная с января 2011 года, Вы можете получить, выбрав интересующий диапазон дат из раскрывающегося списка и нажав кнопку "Ввод!".


*Определитесь, кто Вы:
робот инопланетянин человек

Внимание! Время в таблицах - всемирное. Для получения местного времени необходимо прибавить поправку, которая равна 3 ч.

Смотрите также архив погоды в соседних городах и на ближайших метеорологических станциях:

Погода в Новороссийске (Краснодарский край, Россия) (25 км)
Погода в Геленджике (Краснодарский край, Россия) (39 км)
Погода в Славянске-на-Кубани (Краснодарский край, Россия) (41 км)
Погода в Анапе (Краснодарский край, Россия) (57 км)
Погода в Темрюке (Краснодарский край, Россия) (66 км)
Погода в Краснодаре (Краснодарский край, Россия) (82 км)
Погода в Джубге (Краснодарский край, Россия) (87 км)
Погода в Горячем Ключе (Краснодарский край, Россия) (93 км)
Погода в Тамани (Краснодарский край, Россия) (106 км)
Погода в Тимашевске (Краснодарский край, Россия) (107 км)

Пояснения к столбцам:

Ветер - указаны скорость ветра в м/с - средняя за 10 мин, порывы в срок и между сроками (в фигурных скобках) и направление, откуда дует ветер: С - северный, СВ - северо-восточный, В - восточный, ЮВ - юго-восточный, Ю - южный, ЮЗ - юго-западный, З - западный, СЗ - северо-западный.
Видимость - горизонтальная дальность видимости в метрах или километрах. При видимости от 1 до 10 км при отсутствии осадков обычно наблюдается дымка, при ухудшении видимости до 1 км и менее - туман. В сухую погоду видимость может ухудшаться дымом, пылью или мглою.
Явления - указаны атмосферные явления, наблюдавшиеся в срок или в последний час перед сроком; фигурными скобками обозначены явления, наблюдавшиеся между сроками (за 1-3 часа до срока); квадратными скобками обозначены град или гололедные отложения с указанием их диаметра в мм.
Облачность - указаны через наклонную черту общая и нижняя облачность в баллах и высота нижней границы облаков в метрах; квадратными скобками обозначены формы облаков: Ci - перистые, Cs - перисто-слоистые, Cc - перисто-кучевые, Ac - высококучевые, As - высокослоистые, Sc - слоисто-кучевые, Ns - слоисто-дождевые, Cu - кучевые, Cb - кучево-дождевые. Подробнее классификацию облаков см. в Атласе облаков (PDF).
T - Температура воздуха - температура, измеренная на высоте 2 м над землей.
Td - Температура точки росы - температура, при понижении до которой содержащийся в воздухе водяной пар достигнет насыщения.
f - Относительная влажность воздуха - влажноcть воздуха, измеренная на высоте 2 м над землей.
Te - Эффективная температура - температура, которую ощущает одетый по сезону человек в тени. Характеристика душности погоды. При расчете учитывается влияние влажности воздуха и скорости ветра на теплоощущения человека.
Tes - Эффективная температура на солнце - температура, которую ощущает человек, с поправкой на солнечный нагрев. Характеристика знойности погоды. Зависит от высоты солнца над горизонтом, облачности и скорости ветра. Ночью, в пасмурную погоду, а также при ветре 12 м/с и более поправка равна нулю.
P - Атмосферное давление - приведенное к уровню моря атмосферное давление.
Po - Атмосферное давление - измеренное на уровне метеостанции атмосферное давление.
Tmin - Минимальная температура - минимум температуры воздуха на высоте 2 м над землей.
Tmax - Максимальная температура - максимум температуры воздуха на высоте 2 м над землей.
R - Количество осадков - Количество выпавших осадков за период времени, мм. При наведении курсора мыши на число - период времени, за который выпало указанное количество осадков.
R24 - Количество осадков - Количество выпавших осадков за 24 часа, мм.
S - Снежный покров - Высота снежного покрова, см. При наведении курсора мыши на число - состояние снежного покрова и степень покрытия местности в баллах.